Terminal Aerodrome Forecast
Issued by NWS

Home | Current Version | Previous Version | Text Only | Print | Product List | Glossary On
Versions: 1 2 3 4 5 6 7 8 9 10 11 12 13 14 15 16 17 18 19 20 21
000
FTUS41 KCAR 211700
TAFPQI
TAF
KPQI 211720Z 2118/2218 VRB03KT P6SM BKN110
     FM220900 10004KT P6SM BKN025
     FM221300 VRB03KT P6SM BKN030
     FM221600 07005KT P6SM BKN035
      AMD LTD TO CLD VIS AND WIND=

USA.gov is the U.S. government's official web portal to all federal, state and local government web resources and services.